Latest Coastal Weather Observations for Browse Island

IDW60701

Issued at 2:15 am WST Sunday 31 August 2014 (issued every 10 minutes, with the page automatically refreshed every 10 minutes)

About coastal observations | Map of coastal stations | Coastal observations for WA | Marine services | Other Formats
Station Details ID: 200784 Name: BROWSE ISLAND Lat: -14.11 Lon: 123.55 Height: 3.7 m
Data from the previous 72 hours. | See also: Recent months for locations in Western Australia
Date/Time
WST
Temp

°C
Wind Pressure Rain
since 9am
mm
Weather Cloud Vis
km
Sea
Height
m
Swell
Dir
 
Speed
knots
Gust
knots
hPa Trend Height
m
Period
s
Dir
31/02:00am 25.1 E 6 7 1013.2 - - - - - - - - -
31/01:30am 25.0 ESE 5 - 1013.0 - - - - - - - - -
31/01:00am 25.2 SE 5 - 1013.5 - - - - - - - - -
31/12:30am 25.0 SE 6 - 1013.0 - - - - - - - - -
31/12:00am 25.3 SSE 6 - 1013.9 - - - - - - - - -
 
Date/Time
WST
Temp

°C
Wind Pressure Rain
since 9am
mm
Weather Cloud Vis
km
Sea
Height
m
Swell
Dir
 
Speed
knots
Gust
knots
hPa Trend Height
m
Period
s
Dir
30/11:30pm 25.0 SSE 6 - 1013.0 - - - - - - - - -
30/11:00pm 25.5 S 8 - 1013.8 - - - - - - - - -
30/10:30pm 26.0 S 7 - 1013.0 - - - - - - - - -
30/10:00pm 25.7 S 8 - 1013.8 - - - - - - - - -
30/09:30pm 25.0 S 8 - 1014.0 - - - - - - - - -
30/09:00pm 25.6 SSW 9 - 1014.0 - - - - - - - - -
30/08:30pm 25.0 SSW 9 - 1014.0 - - - - - - - - -
30/08:00pm 25.4 SSW 8 - 1013.8 - - - - - - - - -
30/07:30pm 26.0 SSW 7 - 1013.0 - - - - - - - - -
30/07:00pm 25.8 S 8 - 1013.4 - - - - - - - - -
30/06:30pm 26.0 S 8 - 1013.0 - - - - - - - - -
30/06:00pm 25.8 S 7 - 1012.9 - - - - - - - - -
30/05:30pm 26.0 S 9 - 1013.0 - - - - - - - - -
30/05:00pm 26.0 S 10 - 1012.8 - - - - - - - - -
30/04:30pm 26.0 S 10 - 1012.0 - - - - - - - - -
30/04:00pm 26.3 S 11 - 1012.6 - - - - - - - - -
30/03:30pm 26.0 S 11 - 1012.0 - - - - - - - - -
30/03:00pm 25.8 S 10 - 1012.4 - - - - - - - - -
30/02:30pm 26.0 SSE 9 - 1012.0 - - - - - - - - -
30/02:00pm 26.1 SSE 8 - 1012.8 - - - - - - - - -
30/01:30pm 27.0 SSE 8 - 1013.0 - - - - - - - - -
30/01:00pm 27.3 SSE 7 - 1013.5 - - - - - - - - -
30/12:30pm 27.0 SE 7 - 1014.0 - - - - - - - - -
30/12:00pm 27.1 SE 8 - 1014.3 - - - - - - - - -
30/11:30am 27.0 ESE 8 - 1014.0 - - - - - - - - -
30/11:00am 26.6 ESE 7 - 1015.1 - - - - - - - - -
30/10:30am 27.0 ESE 8 - 1015.0 - - - - - - - - -
30/10:00am 26.8 ESE 8 - 1015.9 - - - - - - - - -
30/09:30am 27.0 ESE 8 - 1016.0 - - - - - - - - -
30/09:00am 26.9 E 9 - 1016.2 - - - - - - - - -
30/08:30am 27.0 E 8 - 1016.0 - - - - - - - - -
30/08:00am 26.0 E 9 - 1016.1 - - - - - - - - -
30/07:30am 26.0 E 9 - 1016.0 - - - - - - - - -
30/07:00am 25.6 ESE 9 - 1015.8 - - - - - - - - -
30/06:30am 25.0 E 9 - 1015.0 - - - - - - - - -
30/06:00am 25.2 ESE 9 - 1015.0 - - - - - - - - -
30/05:30am 25.0 E 8 - 1014.0 - - - - - - - - -
30/05:00am 25.1 ESE 9 - 1014.5 - - - - - - - - -
30/04:30am 25.0 ESE 7 - 1014.0 - - - - - - - - -
30/04:00am 25.3 ESE 8 - 1014.2 - - - - - - - - -
30/03:30am 25.0 ESE 8 - 1014.0 - - - - - - - - -
30/03:00am 25.4 ESE 8 - 1014.2 - - - - - - - - -
30/02:30am 25.0 ESE 7 - 1014.0 - - - - - - - - -
30/02:00am 25.5 E 9 - 1014.5 - - - - - - - - -
30/01:30am 25.0 E 7 - 1014.0 - - - - - - - - -
30/01:00am 25.2 ESE 7 - 1014.7 - - - - - - - - -
30/12:30am 25.0 SE 7 - 1015.0 - - - - - - - - -
30/12:00am 25.3 SE 7 - 1015.1 - - - - - - - - -
 
Date/Time
WST
Temp

°C
Wind Pressure Rain
since 9am
mm
Weather Cloud Vis
km
Sea
Height
m
Swell
Dir
 
Speed
knots
Gust
knots
hPa Trend Height
m
Period
s
Dir
29/11:30pm 25.0 SSE 6 - 1015.0 - - - - - - - - -
29/11:00pm 25.3 S 7 - 1015.2 - - - - - - - - -
29/10:30pm 25.0 S 7 - 1015.0 - - - - - - - - -
29/10:00pm 25.2 S 8 - 1015.2 - - - - - - - - -
29/09:30pm 25.0 SSW 7 - 1015.0 - - - - - - - - -
29/09:00pm 25.3 SSW 7 - 1015.0 - - - - - - - - -
29/08:30pm 25.0 SSW 6 - 1015.0 - - - - - - - - -
29/08:00pm 25.5 S 5 - 1014.6 - - - - - - - - -
29/07:30pm 25.0 SSW 4 - 1014.0 - - - - - - - - -
29/07:00pm 25.4 S 3 - 1014.0 - - - - - - - - -
29/06:30pm 26.0 SE 5 - 1013.0 - - - - - - - - -
29/06:00pm 25.8 SE 5 - 1013.5 - - - - - - - - -
29/05:30pm 26.0 SE 6 - 1013.0 - - - - - - - - -
29/05:00pm 26.2 SE 7 - 1013.2 - - - - - - - - -
29/04:30pm 27.0 ESE 7 - 1013.0 - - - - - - - - -
29/04:00pm 26.9 ESE 8 - 1013.1 - - - - - - - - -
29/03:30pm 27.0 ESE 9 - 1013.0 - - - - - - - - -
29/03:00pm 27.3 ESE 9 - 1013.1 - - - - - - - - -
29/02:30pm 27.0 ESE 10 - 1013.0 - - - - - - - - -
29/02:00pm 27.3 ESE 9 - 1013.6 - - - - - - - - -
29/01:30pm 28.0 ESE 9 - 1014.0 - - - - - - - - -
29/01:00pm 27.3 ESE 9 - 1014.5 - - - - - - - - -
29/12:30pm 27.0 SE 8 - 1015.0 - - - - - - - - -
29/12:00pm 26.4 SSE 7 - 1014.9 - - - - - - - - -
29/11:30am 27.0 SE 6 - 1015.0 - - - - - - - - -
29/11:00am 26.5 ESE 7 - 1015.5 - - - - - - - - -
29/10:30am 25.0 ESE 7 - 1015.0 - - - - - - - - -
29/10:00am 25.8 ESE 6 - 1016.1 - - - - - - - - -
29/09:30am 25.0 SE 7 - 1016.0 - - - - - - - - -
29/09:00am 25.6 ESE 7 - 1016.5 - - - - - - - - -
29/08:30am 26.0 E 7 - 1016.0 - - - - - - - - -
29/08:00am 25.7 E 6 - 1016.4 - - - - - - - - -
29/07:30am 25.0 E 7 - 1016.0 - - - - - - - - -
29/07:00am 24.6 E 7 - 1015.9 - - - - - - - - -
29/06:30am 24.0 E 7 - 1015.0 - - - - - - - - -
29/06:00am 23.9 E 8 - 1015.3 - - - - - - - - -
29/05:30am 24.0 E 8 - 1015.0 - - - - - - - - -
29/05:00am 24.2 ENE 7 - 1014.8 - - - - - - - - -
29/04:30am 24.0 E 7 - 1014.0 - - - - - - - - -
29/04:00am 24.4 ENE 7 - 1014.5 - - - - - - - - -
29/03:30am 24.0 E 9 - 1014.0 - - - - - - - - -
29/03:00am 24.4 E 9 - 1014.4 - - - - - - - - -
29/02:30am 24.0 E 9 - 1014.0 - - - - - - - - -
29/02:00am 24.4 E 10 - 1014.6 - - - - - - - - -
29/01:30am 25.0 E 10 - 1014.0 - - - - - - - - -
29/01:00am 24.5 E 11 - 1014.9 - - - - - - - - -
29/12:30am 25.0 E 13 - 1015.0 - - - - - - - - -
29/12:00am 25.3 E 12 - 1015.4 - - - - - - - - -
 
Date/Time
WST
Temp

°C
Wind Pressure Rain
since 9am
mm
Weather Cloud Vis
km
Sea
Height
m
Swell
Dir
 
Speed
knots
Gust
knots
hPa Trend Height
m
Period
s
Dir
28/11:30pm 25.0 ENE 11 - 1015.0 - - - - - - - - -
28/11:00pm 25.3 E 9 - 1015.5 - - - - - - - - -
28/10:30pm 26.0 E 9 - 1015.0 - - - - - - - - -
28/10:00pm 25.6 E 8 - 1015.4 - - - - - - - - -
28/09:30pm 26.0 ENE 4 - 1015.0 - - - - - - - - -
28/09:00pm 25.7 E 5 - 1014.7 - - - - - - - - -
28/08:30pm 26.0 E 6 - 1014.0 - - - - - - - - -
28/08:00pm 25.5 ESE 7 - 1014.4 - - - - - - - - -
28/07:30pm 26.0 SE 7 - 1014.0 - - - - - - - - -
28/07:00pm 25.5 SE 8 - 1013.9 - - - - - - - - -
28/06:30pm 26.0 SE 9 - 1013.0 - - - - - - - - -
28/06:00pm 25.9 SE 9 - 1013.2 - - - - - - - - -
28/05:30pm 26.0 SE 10 - 1012.0 - - - - - - - - -
28/05:00pm 26.2 SE 10 - 1012.6 - - - - - - - - -
28/04:30pm 27.0 ESE 10 - 1012.0 - - - - - - - - -
28/04:00pm 26.7 SE 10 - 1012.4 - - - - - - - - -
28/03:30pm 27.0 SE 11 - 1012.0 - - - - - - - - -
28/03:00pm 26.6 SE 12 - 1012.3 - - - - - - - - -
28/02:30pm 27.0 SE 13 - 1012.0 - - - - - - - - -
28/02:00pm 27.5 ESE 12 - 1013.0 - - - - - - - - -
28/01:30pm 27.0 ESE 13 - 1013.0 - - - - - - - - -
28/01:00pm 28.1 ESE 14 - 1013.5 - - - - - - - - -
28/12:30pm 27.0 ESE 13 - 1014.0 - - - - - - - - -
28/12:00pm 27.4 ESE 12 - 1014.4 - - - - - - - - -
28/11:30am 27.0 ESE 11 - 1014.0 - - - - - - - - -
28/11:00am 26.2 ESE 11 - 1015.0 - - - - - - - - -
28/10:30am 26.0 E 9 - 1015.0 - - - - - - - - -
28/10:00am 26.4 ESE 8 - 1015.6 - - - - - - - - -
28/09:30am 26.0 SE 5 - 1015.0 - - - - - - - - -
28/09:00am 26.0 ESE 5 - 1015.6 - - - - - - - - -
28/08:30am 27.0 E 6 - 1015.0 - - - - - - - - -
28/08:00am 26.4 E 6 - 1015.4 - - - - - - - - -
28/07:30am 26.0 ENE 6 - 1015.0 - - - - - - - - -
28/07:00am 25.3 ENE 7 - 1015.1 - - - - - - - - -
28/06:30am 25.0 E 7 - 1014.0 - - - - - - - - -
28/06:00am 24.4 ENE 8 - 1014.5 - - - - - - - - -
28/05:30am 25.0 ENE 7 - 1014.0 - - - - - - - - -
28/05:00am 24.5 ENE 8 - 1013.9 - - - - - - - - -
28/04:30am 25.0 NE 10 - 1013.0 - - - - - - - - -
28/04:00am 24.7 NE 9 - 1013.6 - - - - - - - - -
28/03:30am 25.0 NNE 10 - 1013.0 - - - - - - - - -
28/03:00am 24.7 NE 8 - 1013.7 - - - - - - - - -
28/02:30am 25.0 NE 11 - 1014.0 - - - - - - - - -

Other Formats:

Comma delimited format used in spreadsheet applications
http://www.bom.gov.au/fwo/IDW60701/IDW60701.94103.axf

JavaScript Object Notation format (JSON) in row-major order
http://www.bom.gov.au/fwo/IDW60701/IDW60701.94103.json